Location: Unspecified
(0.0000°N, 0.0000°E)
Time: 08:26:21
(UTC+00:00)

Vanguard 1 - Pass Details

Date: 15 February 2018
Orbit: 650 x 3833 km, 34.2° (Epoch: 23 February)

Event Time Altitude Azimuth Distance (km) Brightness Sun altitude
Exits shadow 02:55:58 33° 191° (S) 3,272 12.6 -47.9°
Drops below altitude 10° 03:08:57 10° 145° (SE) 6,019 14.5 -44.8°
Sets 03:15:25 0° 136° (SE) 7,477 15.2 -43.3°
